星链-30385 (STARLINK-30385 )

导读

STARLINK-30385是美国SpaceX公司星链(Starlink)卫星互联网项目中的一颗低轨卫星,于2023年9月4日发射升空。星链计划计划在近地轨道部署数万颗卫星,旨在为全球偏远、欠发达地区提供高速低延迟宽带互联网接入服务,目前已在全球数十个国家落地商用。STARLINK-30385的成功发射是SpaceX推进星链星座组网、完善全球覆盖能力进程中的一环,将助力进一步提升星链网络的服务容量与覆盖稳定性。

Basic Information
目录编号:
57778
目录名称:
STARLINK-30385
国际标识:
2023-134H
轨道中心:
EARTH
卫星名称:
星链-30385
卫星全名:
星链-30385 (STARLINK-30385 )
卫星状态:
在轨 (已飞行1096 天)
发射日期:
2023-09-04 UTC
国别 :
美国 (US)
星等 :
--
Orbit Information
数据来源 国际轨道数据 AOE轨道数据
星历时间 2026-09-04T09:59:02+0800
11小时前
查看轨道信息
2026-09-03T01:00:00+0800
1天前
查看轨道信息
半长轴 6861.181km 6861.19km
偏心率 0.0001544 0.0000716
轨道倾角 43.004° 43.002°
近地点辐角 267.881° 226.288°
升交点赤经 255.537° 263.299°
平近点角 92.187° 127.094°
近地点 481.984km 482.561km
远地点 484.104km 483.545km
周期 94.267分钟 94.267分钟
每日圈数 15.275818 15.275788
Detailed Information
固有亮度:
5
最大亮度:
0.3
卫星平台:
Starlink v2.0 mini
覆盖范围:
全球
运营商:
太空探索技术公司
运营商所在国:
美国
制造商(研发单位):
太空探索技术公司
制造商所在国:
美国
使用方式:
暂无
Satellite Introduction
星链(Starlink)计划是由太空探索技术公司(SpaceX)提出的一个巨型低轨卫星互联网星座项目,计划在2019年至2024年间在太空搭建由约1.2万颗卫星组成的“星链”网络,其中1584颗将部署在地球上空550千米处的近地轨道,并从2020年开始工作。该卫星仍在工作。
2D Orbit Map
3D Orbit Map
Orbit Altitude Analysis Chart
Orbit Inclination Analysis Chart
Orbit Comprehensive Analysis Chart
View Comprehensive Chart
Conjunction Data List
Event ID Objects TCA Miss Dist (km) Collision Risk Probability Collision Risk Index (CRI) Action
CDM_260906-022405-777806-191321
2026-09-06T
02:24:56+0000
0.189 km
中距离
6.874819E-4 高风险 0.92
CDM_260906-154505-777806-191321
2026-09-06T
15:45:14+0000
0.741 km
远距离
4.711659E-5 中风险 0.68
CDM_260906-035905-777806-191321
2026-09-06T
03:59:05+0000
1.614 km
极远距离
3.493927E-6 低风险 0.46
CDM_260906-005005-777806-191321
2026-09-06T
00:50:47+0000
1.804 km
极远距离
2.530678E-6 低风险 0.43
CDM_260828-181205-777806-632521
2026-08-28T
18:12:18+0000
1.556 km
极远距离
1.984591E-6 低风险 0.41
CDM_260906-171905-777806-191321
2026-09-06T
17:19:23+0000
2.114 km
极远距离
1.696951E-6 低风险 0.4
CDM_260905-030705-777806-549121
OBJECT-D (65491)
2026-09-05T
03:07:48+0000
2.530 km
极远距离
1.686688E-6 低风险 0.4
CDM_260906-141105-777806-191321
2026-09-06T
14:11:05+0000
2.156 km
极远距离
1.6239E-6 低风险 0.39
CDM_260904-140405-777806-050621
LUR-1 (60506)
2026-09-04T
14:04:09+0000
2.931 km
极远距离
1.115066E-6 低风险 0.36
CDM_260828-155105-777806-632521
2026-08-28T
15:51:04+0000
2.000 km
极远距离
1.029608E-6 低风险 0.35